This demonstration page uses our WeatherBlox Daily Observations layout. Learn more.

Hourly Observations for March 8, 2018

Temp ( °F °C ) Dew Point ( °F °C ) Humidity (%) Winds ( mph kmh ) Pressure ( in mb ) Visibility ( mi km ) Precip ( " mm )
12:15 am 00:15 Clear 17 -8.5 11 -11.7 78 78 Calm 30.39 1029 10 16.0934 0 0
12:35 am 00:35 Clear 17 -8.2 11 -11.4 78 78 Calm 30.39 1029 10 16.0934 0 0
12:55 am 00:55 Clear 16 -9 10 -12 79 79 Calm 30.39 1029 10 16.0934 0 0
1:15 am 01:15 Clear 15 -9.4 11 -11.7 84 84 WSW 5 7 30.39 1029 10 16.0934 0 0
1:35 am 01:35 Clear 18 -8 11 -11.5 76 76 SW 3 6 30.39 1029 10 16.0934 0 0
1:55 am 01:55 Clear 19 -7.3 12 -11 75 75 SW 3 6 30.36 1028 10 16.0934 0 0
2:15 am 02:15 Clear 18 -7.7 12 -11 77 77 SW 3 6 30.39 1029 10 16.0934 0 0
2:35 am 02:35 Clear 19 -7.5 12 -10.9 77 77 WSW 3 6 30.36 1028 10 16.0934 0 0
2:55 am 02:55 Clear 20 -6.8 13 -10.5 75 75 Calm 30.33 1027 10 16.0934 0 0
3:15 am 03:15 Clear 19 -7.4 13 -10.8 77 77 Calm 30.33 1027 10 16.0934 0 0
3:35 am 03:35 Clear 19 -7.5 12 -11 76 76 Calm 30.33 1027 10 16.0934 0 0
3:55 am 03:55 Clear 16 -8.8 11 -11.5 81 81 W 5 7 30.36 1028 10 16.0934 0 0
4:15 am 04:15 Clear 15 -9.4 11 -11.6 84 84 Calm 30.33 1027 10 16.0934 0 0
4:35 am 04:35 Clear 15 -9.6 11 -11.8 84 84 Calm 30.33 1027 10 16.0934 0 0
4:55 am 04:55 Clear 15 -9.7 10 -12 84 84 Calm 30.33 1027 10 16.0934 0 0
5:15 am 05:15 Clear 14 -10 9 -12.7 81 81 Calm 30.33 1027 10 16.0934 0 0
5:35 am 05:35 Clear 15 -9.3 11 -11.8 82 82 Calm 30.33 1027 10 16.0934 0 0
5:55 am 05:55 Clear 15 -9.6 9 -12.6 79 79 Calm 30.33 1027 10 16.0934 0 0
6:15 am 06:15 Clear 16 -9.1 11 -11.7 82 82 SW 3 6 30.33 1027 10 16.0934 0 0
6:35 am 06:35 Clear 17 -8.1 13 -10.7 82 82 SSW 5 7 30.3 1026 10 16.0934 0 0
6:55 am 06:55 Clear 15 -9.2 10 -12.2 79 79 SSW 3 6 30.33 1027 10 16.0934 0 0
7:15 am 07:15 Sunny 16 -9.1 10 -12 80 80 Calm 30.33 1027 10 16.0934 0 0
7:35 am 07:35 Sunny 16 -9 11 -11.4 83 83 SSE 3 6 30.33 1027 10 16.0934 0 0
7:55 am 07:55 Sunny 18 -7.9 13 -10.4 82 82 Calm 30.3 1026 10 16.0934 0 0
8:15 am 08:15 Sunny 24 -4.3 17 -8.4 73 73 S 5 7 30.27 1025 10 16.0934 0 0
8:35 am 08:35 Sunny 26 -3.2 18 -7.9 70 70 S 5 7 30.27 1025 10 16.0934 0 0
8:55 am 08:55 Sunny 29 -1.4 19 -7.3 65 65 S 7 11 30.24 1024 10 16.0934 0 0
9:15 am 09:15 Sunny 30 -1 18 -7.9 60 60 S 12 19 30.24 1024 10 16.0934 0 0
9:35 am 09:35 Sunny 31 -0.6 18 -8 58 58 S 10 17 30.24 1024 10 16.0934 0 0
9:55 am 09:55 Sunny 32 0.1 18 -7.8 56 56 S 10 17 30.21 1023 10 16.0934 0 0
10:15 am 10:15 Sunny 35 1.5 17 -8.3 49 49 S 9 15 30.18 1022 10 16.0934 0 0
10:35 am 10:35 Sunny 35 1.5 16 -9 46 46 SSE 12 19 30.18 1022 10 16.0934 0 0
10:55 am 10:55 Sunny 36 2.2 16 -9.1 43 43 SSE 12 19 30.18 1022 10 16.0934 0 0
11:15 am 11:15 Sunny 38 3.2 16 -8.8 41 41 S 13 20 30.15 1021 10 16.0934 0 0
11:35 am 11:35 Sunny 39 3.9 16 -8.7 40 40 S 15 24 30.12 1020 10 16.0934 0 0
11:55 am 11:55 Sunny 40 4.3 16 -8.8 38 38 S 14 22 30.12 1020 10 16.0934 0 0
12:15 pm 12:15 Sunny 41 5.2 17 -8.6 37 37 S 15 24 30.12 1020 10 16.0934 0 0
12:35 pm 12:35 Sunny 41 5.2 16 -8.7 36 36 S 17 28 30.09 1019 10 16.0934 0 0
12:55 pm 12:55 Sunny 42 5.7 17 -8.5 36 36 S 17 28 30.09 1019 10 16.0934 0 0
1:15 pm 13:15 Sunny 43 5.9 17 -8.2 36 36 S 14 22 30.06 1018 10 16.0934 0 0
1:35 pm 13:35 Sunny 44 6.5 18 -7.9 35 35 S 12 19 30.03 1017 10 16.0934 0 0
1:55 pm 13:55 Sunny 44 6.9 18 -7.8 35 35 S 13 20 30 1016 10 16.0934 0 0
2:15 pm 14:15 Sunny 46 7.7 19 -7.5 33 33 S 12 19 30 1016 10 16.0934 0 0
2:35 pm 14:35 Sunny 48 9.1 19 -7.4 31 31 SSE 12 19 29.97 1015 10 16.0934 0 0
2:55 pm 14:55 Sunny 48 9.1 19 -7.5 30 30 S 10 17 29.97 1015 10 16.0934 0 0
3:15 pm 15:15 Sunny 49 9.3 19 -7.5 30 30 S 10 17 29.94 1014 10 16.0934 0 0
3:35 pm 15:35 Sunny 49 9.7 18 -7.6 29 29 S 15 24 29.94 1014 10 16.0934 0 0
3:55 pm 15:55 Sunny 50 10 18 -7.6 28 28 S 13 20 29.94 1014 10 16.0934 0 0
4:15 pm 16:15 Sunny 51 10.4 19 -7.5 28 28 S 12 19 29.94 1014 10 16.0934 0 0
4:35 pm 16:35 Sunny 51 10.7 19 -7.5 27 27 SSE 13 20 29.91 1013 10 16.0934 0 0
4:55 pm 16:55 Sunny 52 11 19 -7.5 27 27 SSE 14 22 29.91 1013 10 16.0934 0 0
5:15 pm 17:15 Sunny 51 10.4 19 -7.2 29 29 SSE 14 22 29.91 1013 10 16.0934 0 0
5:35 pm 17:35 Sunny 50 10.1 19 -7.2 29 29 SSE 10 17 29.91 1013 10 16.0934 0 0
5:55 pm 17:55 Sunny 49 9.3 19 -7.3 31 31 SE 12 19 29.91 1013 10 16.0934 0 0
6:15 pm 18:15 Sunny 45 7.4 18 -7.7 34 34 SE 9 15 29.94 1014 10 16.0934 0 0
6:35 pm 18:35 Sunny 42 5.3 17 -8.1 38 38 SE 10 17 29.94 1014 10 16.0934 0 0
6:55 pm 18:55 Clear 38 3.3 16 -9 40 40 SE 10 17 29.97 1015 10 16.0934 0 0
7:15 pm 19:15 Clear 35 1.7 15 -9.2 45 45 SE 9 15 30 1016 10 16.0934 0 0
7:35 pm 19:35 Clear 32 0.1 15 -9.5 49 49 SE 9 15 30 1016 10 16.0934 0 0
7:55 pm 19:55 Clear 32 0.1 16 -8.8 52 52 SE 10 17 29.97 1015 10 16.0934 0 0
8:15 pm 20:15 Clear 32 0.1 16 -8.8 52 52 SE 10 17 29.97 1015 10 16.0934 0 0
8:35 pm 20:35 Clear 32 0 16 -8.7 52 52 SE 9 15 29.97 1015 10 16.0934 0 0
8:55 pm 20:55 Clear 32 -0.2 17 -8.6 54 54 SE 9 15 29.97 1015 10 16.0934 0 0
9:15 pm 21:15 Clear 31 -0.5 17 -8.6 55 55 SE 10 17 29.97 1015 10 16.0934 0 0
9:35 pm 21:35 Clear 30 -1.2 16 -8.8 57 57 SE 9 15 29.97 1015 10 16.0934 0 0
9:55 pm 21:55 Clear 29 -1.5 16 -8.8 58 58 SE 9 15 29.97 1015 10 16.0934 0 0
10:15 pm 22:15 Clear 30 -1 17 -8.5 57 57 SE 9 15 29.97 1015 10 16.0934 0 0
10:35 pm 22:35 Clear 31 -0.4 17 -8.2 56 56 SE 10 17 29.97 1015 10 16.0934 0 0
10:55 pm 22:55 Clear 33 0.5 18 -8 53 53 SE 13 20 29.94 1014 10 16.0934 0 0
11:15 pm 23:15 Clear 33 0.6 18 -8 53 53 SE 12 19 29.94 1014 10 16.0934 0 0
11:35 pm 23:35 Clear 34 1 17 -8.3 50 50 SE 13 20 29.94 1014 10 16.0934 0 0
11:55 pm 23:55 Partly Cloudy 33 0.8 17 -8.5 50 50 SE 13 20 29.94 1014 10 16.0934 0 0

Powered by AerisWeather